Regional Weather Roundup
Issued by NWS

Home | Current Version | Previous Version | Text Only | Print | Product List | Glossary Off
Versions: 1 2 3 4 5 6 7 8 9 10 11 12 13 14 15 16 17 18 19 20 21 22 23 24 25 26 27 28 29 30 31 32 33 34 35 36 37 38 39 40 41 42 43 44 45 46 47 48 49 50

000
ASUS43 KFSD 210102
RWRSD

WEATHER ROUNDUP FOR SOUTH DAKOTA
NATIONAL WEATHER SERVICE SIOUX FALLS SD
700 PM CST SAT DEC 20 2014

NOTE: "FAIR" INDICATES FEW OR NO CLOUDS BELOW 12,000 FEET WITH NO
SIGNIFICANT WEATHER AND/OR OBSTRUCTIONS TO VISIBILITY.


SDZ001>005-009-010-012>017-210200-
NORTHWEST AND NORTH CENTRAL SOUTH DAKOTA

CITY           SKY/WX    TMP DP  RH WIND       PRES   REMARKS
BUFFALO          N/A     33  24  69 W10       29.77F WCI  25
FAITH            N/A     36  27  69 SW9       29.85S
MOBRIDGE       PTCLDY    27  25  92 SE10      29.83S WCI  17
$$

SDZ012>016-024>037-041>051-057-063-072>074-210200-
SOUTHWEST AND SOUTH CENTRAL SOUTH DAKOTA

CITY           SKY/WX    TMP DP  RH WIND       PRES   REMARKS
RAPID CTY ARPT PTCLDY    33  26  75 CALM      29.87S
PIERRE         PTCLDY    18  17  96 E3        29.89S FOG
CUSTER         PTCLDY    29  20  69 W3        29.87S
ELLSWORTH AFB  PTCLDY    40  26  57 CALM      29.86F
PHILIP         PTCLDY    35  25  66 W7        29.88S WCI  29
PINE RIDGE     PTCLDY    30  24  78 CALM      29.90S
WINNER         FAIR      32  25  75 S6        29.90S WCI  26
$$

SDZ004>011-016>023-039-040-210200-
NORTHEAST SOUTH DAKOTA

CITY           SKY/WX    TMP DP  RH WIND       PRES   REMARKS
ABERDEEN       CLOUDY    29  27  92 S13       29.93R FOG     WCI  19
WATERTOWN      CLOUDY    29  28  96 S15       29.93S FOG     WCI  18
$$

SDZ017-020-022-023-036>040-048>070-210200-
SOUTHEAST SOUTH DAKOTA

CITY           SKY/WX    TMP DP  RH WIND       PRES   REMARKS
SIOUX FALLS    CLOUDY    30  29  96 S12       30.00F FOG     WCI  20
HURON          CLOUDY    30  29  96 S14       29.95S FOG     WCI  19
MITCHELL       CLOUDY    32  31  96 S8        29.98R FOG     WCI  25
YANKTON        CLOUDY    32  28  86 SE16      30.00F WCI  21
$$

ABBREVIATIONS USED IN REMARKS
   TC - TEMPERATURE IN CELSIUS
  WCI - WIND CHILL INDEX
   HX - HEAT INDEX
  VSB - VISIBILITY




USA.gov is the U.S. government's official web portal to all federal, state and local government web resources and services.